Home > Weather > Pamplona > Past weeks

Flag for Spain Past Weather in Pamplona, Spain — Yesterday and Last 2 Weeks

Now
59 °F

Passing clouds.


Feels Like: 59 °F
Forecast: 53 / 78 °F
Wind: 5 mph from Northwest

Location: Pamplona / Noain

Current Time: May 27, 2016 at 12:28:39 AM

Latest Report: May 27, 2016 at 12:00 AM


Visibility: N/A

Pressure: 29.92 "Hg

Humidity: 88%

Dew Point: 55 °F

Location of PamplonaLocation

Past Weather in Pamplona — Graph

°F

Pamplona Temperature Yesterday

Maximum temperature yesterday: 77 °F (at 3:30 PM)
Minimum temperature yesterday: 55 °F (at 5:00 AM)
Average temperature yesterday: 64 °F

High & Low Weather Summary for the Past Weeks

 TemperatureHumidityPressure
High84 °F (May 21, 3:30 PM)100% (May 12, 5:30 AM)30.30 "Hg (May 12, 5:30 AM)
Low41 °F (May 13, 6:30 AM)26% (May 20, 4:30 PM)29.65 "Hg (May 12, 5:30 AM)
Average59 °F69%30.02 "Hg
* Reported May 11 11:00 PM — May 26 11:00 PM, Pamplona, Weather by CustomWeather, © 2016

Note: Actual official high and low records may vary slightly from our data, if they occured in-between our weather recording intervals... More about our weather records

Advertising

Pamplona Weather History for the Previous 24 Hours

Scroll right to see more
 ConditionsComfort  
Time TempWeatherWind HumidityBarometerVisibility
11:00 PM
Thu, May 26
59 °FPassing clouds.3 mph88%29.92 "HgN/A
10:30 PM61 °FPassing clouds.5 mph83%29.92 "HgN/A
10:00 PM61 °FPassing clouds.7 mph83%29.92 "HgN/A
9:30 PM61 °FPassing clouds.8 mph88%29.89 "HgN/A
9:00 PM63 °FPassing clouds.15 mph83%29.89 "HgN/A
8:30 PM64 °FPassing clouds.9 mph78%29.86 "HgN/A
8:00 PM68 °FPassing clouds.13 mph73%29.86 "HgN/A
7:30 PM73 °FPassing clouds.2 mph53%29.83 "HgN/A
7:00 PM75 °FPassing clouds.2 mph44%29.83 "HgN/A
6:30 PM77 °FScattered clouds.3 mph44%29.86 "HgN/A
6:00 PM75 °FScattered clouds.6 mph44%29.86 "HgN/A
5:30 PM75 °FScattered clouds.3 mph44%29.86 "HgN/A
5:00 PM75 °FScattered clouds.2 mph44%29.86 "HgN/A
4:30 PM75 °FScattered clouds.3 mph44%29.86 "HgN/A
4:00 PM77 °FScattered clouds.8 mph44%29.86 "HgN/A
3:30 PM77 °FScattered clouds.12 mph44%29.86 "HgN/A
3:00 PM73 °FScattered clouds.2 mph50%29.86 "HgN/A
2:30 PM75 °FScattered clouds.2 mph50%29.86 "HgN/A
2:00 PM73 °FPassing clouds.5 mph53%29.89 "HgN/A
1:30 PM72 °FPassing clouds.1 mph61%29.89 "HgN/A
1:00 PM68 °FScattered clouds.1 mph69%29.89 "HgN/A
12:30 PM66 °FScattered clouds.No wind73%29.89 "HgN/A
12:00 PM64 °FScattered clouds.2 mph73%29.89 "HgN/A
11:30 AM63 °FScattered clouds.2 mph77%29.89 "HgN/A
11:00 AM59 °FScattered clouds.No wind88%29.89 "HgN/A
10:30 AM57 °FScattered clouds.No wind88%29.89 "HgN/A
10:00 AM57 °FPassing clouds.No wind88%29.89 "HgN/A
9:30 AM57 °FPassing clouds.1 mph88%29.89 "HgN/A
9:00 AM57 °FPassing clouds.2 mph88%29.89 "HgN/A
8:30 AM57 °FPassing clouds.2 mph88%29.89 "HgN/A
8:00 AM55 °FPassing clouds.1 mph94%29.89 "HgN/A
7:30 AM55 °FPassing clouds.No wind88%29.89 "HgN/A
7:00 AM55 °FPassing clouds.3 mph88%29.89 "HgN/A
6:30 AM55 °FPassing clouds.2 mph88%29.89 "HgN/A
6:00 AM55 °FPassing clouds.No wind88%29.89 "HgN/A
5:30 AM55 °FPassing clouds.2 mph88%29.89 "HgN/A
5:00 AM55 °FClear.2 mph88%29.89 "Hg10 mi
4:30 AM57 °FClear.1 mph82%29.89 "Hg10 mi
4:00 AM57 °FClear.No wind88%29.89 "Hg10 mi
3:30 AM57 °FClear.2 mph88%29.89 "Hg10 mi
3:00 AM57 °FClear.2 mph88%29.89 "Hg10 mi
2:30 AM57 °FClear.2 mph88%29.89 "Hg10 mi
2:00 AM59 °FClear.1 mph82%29.89 "Hg10 mi
1:30 AM59 °FClear.No wind82%29.92 "Hg10 mi
1:00 AM59 °FClear.No wind82%29.92 "Hg10 mi
12:30 AM61 °FPassing clouds.3 mph77%29.92 "HgN/A
12:00 AM61 °FPassing clouds.3 mph77%29.92 "HgN/A
Weather by CustomWeather, © 2016

See weather overviewHow to use our weather pages